首頁 / ETF搜尋 / 
代碼 ETF名稱 投資標的/風格 日期 幣別 成立年資 管理費(%) 規模
(百萬美元)
0052 富邦科技 資訊科技股 2024/07/23 台幣 18 0.25 257.96
(8,370.83 台幣)
0053 元大電子 資訊科技股 2024/07/23 台幣 17 0.60 15.56
(504.87 台幣)
00662 富邦NASDAQ 資訊科技股 2024/07/22 台幣 8 0.55 827.36
(26,847.81 台幣)
00735 國泰臺韓科技 資訊科技股 2024/07/23 台幣 6 0.96 6.31
(204.73 台幣)
00737 國泰AI+Robo 資訊科技股 2024/07/22 台幣 6 1.54 20.13
(653.36 台幣)
00762 元大全球AI 資訊科技股 2024/07/22 台幣 6 1.27 80.86
(2,623.76 台幣)
00770 國泰北美科技 資訊科技股 2024/07/22 台幣 6 0.62 70.49
(2,287.31 台幣)
00830 國泰費城半導體 資訊科技股 2024/07/22 台幣 5 0.62 674.26
(21,879.73 台幣)
00851 台新全球AI 資訊科技股 2024/07/22 台幣 5 2.07 13.78
(447.03 台幣)
00875 國泰網路資安 資訊科技股 2024/07/22 台幣 4 1.53 19.00
(616.51 台幣)
00891 中信關鍵半導體 資訊科技股 2024/07/23 台幣 3 0.58 610.41
(19,807.69 台幣)
00892 富邦台灣半導體 資訊科技股 2024/07/23 台幣 3 0.62 236.27
(7,666.86 台幣)
00893 國泰智能電動車 資訊科技股 2024/07/22 台幣 3 1.27 442.40
(14,355.74 台幣)
00895 富邦未來車 資訊科技股 2024/07/22 台幣 3 1.22 182.31
(5,915.91 台幣)
00896 中信綠能及電動車 資訊科技股 2024/07/23 台幣 3 0.60 129.52
(4,203.06 台幣)
00901 永豐智能車供應鏈 資訊科技股 2024/07/23 台幣 3 0.62 59.60
(1,934.11 台幣)
00902 中信電池及儲能 資訊科技股 2024/07/22 台幣 2 1.25 179.49
(5,824.47 台幣)
00903 富邦元宇宙 資訊科技股 2024/07/22 台幣 2 1.20 83.66
(2,714.85 台幣)
00904 新光臺灣半導體30 資訊科技股 2024/07/23 台幣 2 0.74 67.06
(2,176.21 台幣)
00909 國泰數位支付服務 資訊科技股 2024/07/22 台幣 2 1.34 47.37
(1,537.28 台幣)
00910 第一金太空衛星 資訊科技股 2024/07/22 台幣 2 2.38 3.62
(117.36 台幣)
00911 兆豐洲際半導體 資訊科技股 2024/07/22 台幣 2 1.69 13.43
(435.90 台幣)
00913 兆豐台灣晶圓製造 資訊科技股 2024/07/23 台幣 2 1.39 7.18
(232.98 台幣)
00925 新光標普電動車 資訊科技股 2024/07/22 台幣 1 2.36 3.31
(107.43 台幣)
00927 群益半導體收益 資訊科技股 2024/07/23 台幣 1 0.48 289.06
(9,379.95 台幣)
00929 復華台灣科技優息 資訊科技股 2024/07/23 台幣 1 0.56 7,169.38
(232,646.45 台幣)
00935 野村臺灣新科技50 資訊科技股 2024/07/23 台幣 1 0.22 206.17
(6,690.26 台幣)
00941 中信上游半導體 資訊科技股 2024/07/22 台幣 0 N/A 667.20
(21,650.61 台幣)
00947 台新臺灣IC設計 資訊科技股 2024/07/23 台幣 0 N/A 92.24
(2,993.18 台幣)
020023 元大櫃買半導體N 資訊科技股 2024/07/23 台幣 4 N/A N/A
020025 統一亞洲半導體N 資訊科技股 2024/07/22 台幣 3 N/A N/A
020028 元大特選電動車N 資訊科技股 2024/07/23 台幣 3 N/A N/A
020030 統一智慧電動車N 資訊科技股 2024/07/23 台幣 3 N/A N/A
020031 統一IC設計臺灣N 資訊科技股 2024/07/23 台幣 2 N/A N/A
020034 元大IC設計N 資訊科技股 2024/07/23 台幣 2 N/A N/A
2807 Global X中國機械人及人工智能ETF 資訊科技股 2024/07/22 港幣 4 0.68 14.24
(111.21 港幣)
2812 三星中證中國龍網ETF 資訊科技股 2024/07/19 港幣 6 1.47 16.27
(127.20 港幣)
2814 三星 NYSE FANG+ ETF 資訊科技股 2024/07/19 港幣 3 2.28 6.07
2826 Global X中國雲端運算ETF 資訊科技股 2024/07/22 港幣 5 0.68 29.78
(232.53 港幣)
2834 iShares安碩納斯達克100指數ETF 資訊科技股 2024/07/22 港幣 8 0.28 63.19
2837 Global X琤肮鴔滈TF 資訊科技股 2024/07/22 港幣 1 0.45 397.84
(3,106.50 港幣)
2845 Global X中國電動車及電池 ETF 資訊科技股 2024/07/22 港幣 4 0.68 144.00
(1,124.40 港幣)
2849 Global X自動駕駛及電動車ETF 資訊科技股 2024/07/22 港幣 3 0.68 1.26
(9.86 港幣)
3006 Global X元宇宙主題主動型ETF 資訊科技股 2024/07/22 港幣 2 0.75 1.60
(12.46 港幣)
3030 惠理EMQQ新興市場網絡與電商ETF 資訊科技股 2024/07/17 港幣 2 1.49 11.21
(87.55 港幣)
3032 琤肮鴔獂數ETF 資訊科技股 2024/07/22 港幣 4 0.68 390.31
(3,047.67 港幣)
3033 南方東英琤肮鴔獂數ETF 資訊科技股 2024/07/22 港幣 4 1.04 3,534.54
(27,599.08 港幣)
3034 南方東英納斯達克 100 ETF 資訊科技股 2024/07/22 港幣 2 2.00 6.75
3067 iShares安碩琤肮鴔滈TF 資訊科技股 2024/07/22 港幣 4 0.25 1,198.46
(9,358.03 港幣)
3072 日興資產管理環球互聯網ETF 資訊科技股 2024/07/22 港幣 5 0.88 15.27
3088 華夏琤肮鴔獂數ETF 資訊科技股 2024/07/22 港幣 4 0.60 204.51
(1,596.86 港幣)
3091 日興資產管理元宇宙主題主動型ETF 資訊科技股 2024/07/22 港幣 4 1.25 21.58
3109 南方東英科創板50指數ETF 資訊科技股 2024/07/22 港幣 3 2.16 5.45
(39.62 人民幣)
3112 潘渡招商區塊鏈主題ETF 資訊科技股 2024/07/19 港幣 2 2.50 30.86
3117 Global X中國遊戲及娛樂 ETF 資訊科技股 2024/07/22 港幣 3 0.68 1.02
(7.96 港幣)
3119 Global X亞洲半導體 ETF 資訊科技股 2024/07/22 港幣 3 0.68 10.66
(83.27 港幣)
3124 Global X中國電子商務及物流 ETF 資訊科技股 2024/07/22 港幣 3 0.68 0.78
(6.08 港幣)
3132 三星彭博環球半導體ETF 資訊科技股 2024/07/19 港幣 3 1.63 8.88
3134 南方東英華泰柏瑞中證太陽能產業ETF 資訊科技股 2024/07/22 港幣 3 1.63 4.47
(32.50 人民幣)
3139 Global X電動車及電池主動型ETF 資訊科技股 2024/07/22 港幣 2 0.75 0.68
(5.32 港幣)
3151 Premia中國科創50ETF 資訊科技股 2024/07/22 港幣 3 0.58 26.83
(195.00 人民幣)
3162 南方東英全球智能駕駛指數ETF 資訊科技股 2024/07/22 港幣 3 3.00 1.32
3171 三星區塊鏈技術 ETF 資訊科技股 2024/07/19 港幣 2 0.85 18.49
3172 三星亞太元宇宙概念(新西蘭除外)ETF 資訊科技股 2024/07/19 港幣 2 0.85 5.87
(45.93 港幣)
3181 Premia亞洲創新科技及元宇宙主題ETF 資訊科技股 2024/07/22 港幣 6 0.50 4.00
3185 Global X金融科技ETF 資訊科技股 2024/07/22 港幣 3 0.68 1.17
(9.11 港幣)
3191 Global X中國半導體ETF 資訊科技股 2024/07/22 港幣 4 0.68 48.44
(378.27 港幣)
3193 南方東英銀華中證5G通信主題ETF 資訊科技股 2024/07/22 港幣 4 3.00 0.72
(5.25 人民幣)
3194 南方東英全球雲計算科技指數ETF 資訊科技股 2024/07/22 港幣 3 3.00 1.40
3405 富邦ICE FactSet亞洲電池及儲能科技指數ETF 資訊科技股 2024/07/22 港幣 1 1.20 1.60
3412 都會財富精選電子支付 ETF 資訊科技股 2024/07/19 港幣 0 2.50 N/A
3413 都會財富精選人工智能及自動化主動型 ETF 資訊科技股 2024/07/19 港幣 0 2.50 N/A
3426 都會財富精選 Web3 ETF 資訊科技股 2024/07/19 港幣 0 2.50 N/A
83088 華夏琤肮鴔獂數ETF 資訊科技股 2024/07/22 人民幣 0 0.60 204.51
(1,596.86 港幣)
83151 Premia中國科創50ETF 資訊科技股 2024/07/22 人民幣 3 0.58 26.83
(195.00 人民幣)
9067 iShares安碩琤肮鴔滈TF 資訊科技股 2024/07/22 美元 4 0.25 1,198.46
(9,358.03 港幣)
9072 日興資產管理環球互聯網ETF 資訊科技股 2024/07/22 美元 5 0.88 15.27
9088 華夏琤肮鴔獂數ETF 資訊科技股 2024/07/22 美元 4 0.60 204.51
(1,596.86 港幣)
9091 日興資產管理元宇宙主題主動型ETF 資訊科技股 2024/07/22 美元 4 1.25 21.58
9151 Premia中國科創50ETF 資訊科技股 2024/07/22 美元 3 0.58 26.83
(195.00 人民幣)
9181 Premia亞洲創新科技及元宇宙主題ETF 資訊科技股 2024/07/22 美元 6 0.50 4.00
9191 Global X中國半導體ETF 資訊科技股 2024/07/22 美元 4 0.68 48.44
9807 Global X中國機械人及人工智能ETF 資訊科技股 2024/07/22 美元 4 0.68 14.24
9812 三星中證中國龍網ETF 資訊科技股 2024/07/19 美元 4 1.47 16.27
(127.20 港幣)
9814 三星 NYSE FANG+ ETF 資訊科技股 2024/07/19 美元 3 2.28 6.07
9826 Global X中國雲端運算ETF 資訊科技股 2024/07/22 美元 5 0.68 29.78
9834 iShares安碩納斯達克100指數ETF 資訊科技股 2024/07/22 美元 8 0.28 63.19
9845 Global X中國電動車及電池 ETF 資訊科技股 2024/07/22 美元 4 0.68 144.00
AGIX KraneShares人工智慧與科技主動型ETF 資訊科技股 2024/07/22 美元 0 1.00 N/A
AIFD TCW人工智慧主動型ETF 資訊科技股 2024/07/22 美元 0 0.75 63.29
AIPI REX人工智慧股票溢價收益主動型ETF 資訊科技股 2024/07/19 美元 0 0.65 9.53
AIQ Global X人工智慧與科技ETF 大型股成長型 2024/07/19 美元 6 0.68 2,076.43
AMOM QRAFT人工智慧增強美國大型股動能主動型ETF 大型股混合型 2024/07/19 美元 5 0.75 21.61
ANEW ProShares MSCI轉型變革ETF 資訊科技股 2024/07/22 美元 4 0.45 8.46
ARKF ARK金融科技創新主動型ETF 大型股成長型 2024/07/19 美元 5 0.75 893.49
ARKK ARK創新主動型ETF 大型股混合型 2024/07/19 美元 10 0.75 6,043.77
ARKW ARK Next物聯網主動型ETF 大型股成長型 2024/07/19 美元 10 0.87 1,451.29
ARVR First Trust Indxx元宇宙ETF 資訊科技股 2024/07/19 美元 2 0.70 3.71
AWAY Amplify旅遊科技ETF 資訊科技股 2024/07/22 美元 4 0.76 76.53
BCDF Horizon Kinetics區塊鏈開發主動型ETF 資訊科技股 2024/07/22 美元 2 0.85 9.85

附註:
一、 績效計算為原幣別報酬,且皆有考慮配息情況。基金配息率不代表基金報酬率,且過去配息率不代表未來配息率。所有基金績效,均為過去績效,不代表未來之績效表現,亦不保證基金之最低投資收益。
二、 基金淨值可能因市場因素而上下波動,基金淨值僅供參考,實際以基金公司公告之淨值為準;海外市場指數類型基金,以交易日當天收盤價為淨值參考價。
三、 上述銷售費用僅供參考,實際費率以各銷售機構為主。
四、 上述資料只供參考用途,嘉實資訊自當盡力提供正確訊息,但如有錯漏或疏忽,本公司或關係企業與其任何董事或任何受僱人,恕不負任何法律責任。